FENGYUN 1C DEB

Satellite information

Favourite Embed

Satellite Type and Status

DEBRISIN ORBIT

Key statistics

Satellite FENGYUN 1C DEB at a glance.

Uptime

9662

Days in orbit

Revolutions

≈ 14.3

Per day

Orbit

SSO

Sun Synchronous Orbit

Inclination

99.1

Latest

Satellite identification and parameters

Extended collection of information and parameters for FENGYUN 1C DEB.

Object identification

Identified? True

Debris? True

Object name: FENGYUN 1C DEB

International designator: 1999-025BRC

Object number (NORAD): 31348

Object ID (CCSDS): 31348

Country: PEOPLES REPUBLIC OF CHINA (PRC)

Current information (Y/N): Y

RCS size: SMALL

Orbital parameters

Period: 100.451 minutes

Inclination: 99.1114 deg

SMA: 7158.053 km

Apoapsis: 801.877 km

Periapsis: 757.96 km

RAAN: 242.5174 deg

Eccentricy: 0.00306767

Argument of periapsis: 216.5729 deg

Mean anomaly: 298.4146 deg

Mean motion: 14.33541772 rev/day

Mean motion (dot): 0.00005413 rev/day2

B* drag term: 0.0019622991 1/REarth

Two-line elements (TLE)

Creation date: Oct. 21, 2025, 6:24 p.m.

Reference frame: TEME

Reference center: EARTH

Epoch: Oct. 21, 2025, 7:53 a.m. UTC

TLE line 0: 0 FENGYUN 1C DEB

TLE line 1: 1 31348U 99025BRC 25294.32874678 .00005413 00000-0 19623-2 0 9997

TLE line 2: 2 31348 99.1114 242.5174 0030677 216.5729 298.4146 14.33541772954982

Live tracking on map

Real-time ground track for satellite FENGYUN 1C DEB.

In-orbit conjunctions

A list of the most updated potential collisions computed for object FENGYUN 1C DEB.

Target Orbit TCA Probability of collision Miss distance Type
COSMOS 407 LEO 2025-08-27 00:40:03 0.0002672744 885.0 (m) PAYLOAD
METEOR 2-10 LEO 2025-06-20 13:29:57 0.0001019355 1000.0 (m) PAYLOAD
FENGYUN 1C DEB SSO 2024-11-15 11:19:01 0.0005930294 209.0 (m) DEBRIS
DMSP 5D-2 F13 DEB SSO 2024-09-27 07:03:39 0.0004395506 590.0 (m) DEBRIS

Associated space launch

Chinese polar orbiting meteorological satellite

FENGYUN 1C DEB was lifted into orbit during the mission ‘Long March 4B | Feng Yun 1C’, on board a Long March 4B space rocket.

The launch took place on May 10, 1999, 1:33 a.m. from Launch Complex 7.

For more information about the launch, click the button.

Launch to space Long March 4B | Feng Yun 1C
Long March 4B | Feng Yun 1C

Agency: N/A

Status: Launch Successful

Launch date: May 10, 1999, 1:33 a.m. UTC

Rocket: Long March 4B

Launch pad: Launch Complex 7

Location: Taiyuan Satellite Launch Center, People's Republic of China

...

Latest news about this satellite

There are no fresh news available about this satellite. Check back as we update our databases every day.


Newsletter sign-up

Weekly statistics, charts and insights to help you stay on top of the space industry.